When you browse on this site, cookies collect data to enhance your experience and personalize the content and advertising you see.
Visit our Privacy Policy to learn more. By continuing to use the site, you agree to this use of cookies and data.
  • In Austria
  • List of Countries
  • For 7 days
  • Water Temperature
  • Satellite Maps
  • Weather Map
  • News
  • Weather Widgets
  • user-avatar
    Login

    Hourly Weather Tshikapa

    Today, 18 December, Tuesday

    Time Temperature Precipitation Wind Pressure Humidity
    00:00 +24°C° 0 mm 1 mps 717 mmHg 92%
    01:00 +24°C° 0 mm 1 mps 718 mmHg 93%
    02:00 +24°C° 0.1 mm 1 mps 718 mmHg 93%
    03:00 +23°C° 0.1 mm 1 mps 718 mmHg 93%
    04:00 +21°C° 0.1 mm 0 mps 718 mmHg 93%
    05:00 +24°C° 0 mm 1 mps 718 mmHg 90%
    06:00 +24°C° 0 mm 1 mps 718 mmHg 88%
    07:00 +26°C° 0 mm 1 mps 719 mmHg 81%
    08:00 +28°C° 0 mm 1 mps 719 mmHg 70%
    09:00 +31°C° 0 mm 1 mps 719 mmHg 60%
    10:00 +33°C° 0 mm 1 mps 719 mmHg 49%
    11:00 +33°C° 0.1 mm 1 mps 718 mmHg 49%
    12:00 +33°C° 0.1 mm 1 mps 717 mmHg 49%
    13:00 +33°C° 0.1 mm 1 mps 717 mmHg 49%
    14:00 +33°C° 0.1 mm 1 mps 716 mmHg 52%
    15:00 +32°C° 0.1 mm 1 mps 716 mmHg 54%
    16:00 +32°C° 0.1 mm 1 mps 715 mmHg 57%
    17:00 +30°C° 0.1 mm 1 mps 715 mmHg 66%
    18:00 +28°C° 0.1 mm 1 mps 715 mmHg 74%
    19:00 +26°C° 0.1 mm 1 mps 716 mmHg 83%
    20:00 +26°C° 0 mm 1 mps 716 mmHg 84%
    21:00 +25°C° 0 mm 1 mps 717 mmHg 86%
    22:00 +25°C° 0 mm 1 mps 717 mmHg 88%
    23:00 +25°C° 0.4 mm 1 mps 717 mmHg 90%

    Tomorrow, 19 December, Wednesday

    Time Temperature Precipitation Wind Pressure Humidity
    00:00 +24°C° 0.4 mm 1 mps 717 mmHg 93%
    01:00 +24°C° 0.4 mm 1 mps 716 mmHg 95%
    02:00 +24°C° 0.3 mm 1 mps 716 mmHg 96%
    03:00 +23°C° 0.3 mm 1 mps 716 mmHg 96%
    04:00 +23°C° 0.3 mm 1 mps 716 mmHg 97%
    05:00 +24°C° 0.2 mm 1 mps 717 mmHg 96%
    06:00 +24°C° 0.2 mm 1 mps 717 mmHg 95%
    07:00 +24°C° 0.2 mm 1 mps 718 mmHg 94%
    08:00 +25°C° 0.5 mm 1 mps 718 mmHg 90%
    09:00 +27°C° 0.5 mm 1 mps 718 mmHg 86%
    10:00 +28°C° 0.5 mm 1 mps 718 mmHg 82%
    11:00 +29°C° 0.2 mm 1 mps 717 mmHg 73%
    12:00 +31°C° 0.2 mm 1 mps 717 mmHg 63%
    13:00 +33°C° 0.2 mm 1 mps 717 mmHg 54%
    14:00 +31°C° 0.6 mm 1 mps 716 mmHg 64%
    15:00 +30°C° 0.6 mm 1 mps 716 mmHg 74%
    16:00 +29°C° 0.6 mm 1 mps 715 mmHg 84%
    17:00 +27°C° 0.4 mm 1 mps 715 mmHg 87%
    18:00 +26°C° 0.4 mm 1 mps 715 mmHg 90%
    19:00 +23°C° 0.4 mm 0 mps 716 mmHg 93%
    20:00 +22°C° 0 mm 0 mps 716 mmHg 94%
    21:00 +22°C° 0 mm 0 mps 717 mmHg 94%
    22:00 +22°C° 0 mm 0 mps 717 mmHg 94%
    23:00 +22°C° 0 mm 0 mps 717 mmHg 95%

    Day after tomorrow, 20 December, Thursday

    Time Temperature Precipitation Wind Pressure Humidity
    00:00 +22°C° 0 mm 0 mps 716 mmHg 95%
    01:00 +21°C° 0 mm 0 mps 716 mmHg 95%
    02:00 +21°C° 0 mm 0 mps 716 mmHg 95%
    03:00 +21°C° 0 mm 0 mps 716 mmHg 96%
    04:00 +21°C° 0 mm 0 mps 716 mmHg 96%
    05:00 +22°C° 0 mm 0 mps 716 mmHg 94%
    06:00 +22°C° 0 mm 0 mps 717 mmHg 92%
    07:00 +23°C° 0 mm 0 mps 717 mmHg 91%
    08:00 +25°C° 0.3 mm 0 mps 717 mmHg 82%
    09:00 +27°C° 0.3 mm 0 mps 718 mmHg 74%
    10:00 +29°C° 0.3 mm 0 mps 718 mmHg 66%
    11:00 +30°C° 1.3 mm 1 mps 717 mmHg 72%
    12:00 +29°C° 1.3 mm 1 mps 717 mmHg 77%
    13:00 +28°C° 1.3 mm 2 mps 716 mmHg 82%
    14:00 +28°C° 0.7 mm 2 mps 716 mmHg 84%
    15:00 +27°C° 0.7 mm 2 mps 716 mmHg 85%
    16:00 +26°C° 0.7 mm 2 mps 715 mmHg 86%
    17:00 +25°C° 0.1 mm 2 mps 715 mmHg 89%
    18:00 +24°C° 0.1 mm 1 mps 716 mmHg 91%
    19:00 +21°C° 0.1 mm 0 mps 716 mmHg 94%
    20:00 +22°C° 0.1 mm 0 mps 717 mmHg 93%
    21:00 +24°C° 0.1 mm 1 mps 717 mmHg 93%
    22:00 +24°C° 0.1 mm 1 mps 718 mmHg 93%
    23:00 +23°C° 0.2 mm 1 mps 717 mmHg 93%

    21 December, Friday

    Time Temperature Precipitation Wind Pressure Humidity
    00:00 +21°C° 0.2 mm 0 mps 717 mmHg 93%
    01:00 +21°C° 0.2 mm 0 mps 716 mmHg 93%
    02:00 +21°C° 0.1 mm 0 mps 716 mmHg 94%
    03:00 +20°C° 0.1 mm 0 mps 716 mmHg 95%
    04:00 +20°C° 0.1 mm 0 mps 716 mmHg 96%
    05:00 +21°C° 0 mm 0 mps 717 mmHg 93%
    06:00 +22°C° 0 mm 0 mps 717 mmHg 90%
    07:00 +23°C° 0 mm 0 mps 718 mmHg 88%
    08:00 +26°C° 0.3 mm 1 mps 718 mmHg 81%
    09:00 +28°C° 0.3 mm 1 mps 718 mmHg 74%
    10:00 +29°C° 0.3 mm 2 mps 718 mmHg 68%
    11:00 +29°C° 0.7 mm 2 mps 717 mmHg 74%
    12:00 +28°C° 0.7 mm 2 mps 717 mmHg 80%
    13:00 +27°C° 0.7 mm 2 mps 716 mmHg 86%
    14:00 +27°C° 0.9 mm 2 mps 715 mmHg 87%
    15:00 +26°C° 0.9 mm 1 mps 715 mmHg 88%
    16:00 +26°C° 0.9 mm 1 mps 714 mmHg 89%
    17:00 +25°C° 0.1 mm 1 mps 715 mmHg 91%
    18:00 +25°C° 0.1 mm 1 mps 715 mmHg 93%
    19:00 +22°C° 0.1 mm 0 mps 716 mmHg 94%
    20:00 +22°C° 0 mm 0 mps 716 mmHg 93%
    21:00 +22°C° 0 mm 0 mps 716 mmHg 92%
    22:00 +22°C° 0 mm 0 mps 717 mmHg 91%
    23:00 +21°C° 0 mm 0 mps 716 mmHg 92%

    22 December, Saturday

    Time Temperature Precipitation Wind Pressure Humidity
    00:00 +21°C° 0 mm 0 mps 716 mmHg 92%
    01:00 +21°C° 0 mm 0 mps 715 mmHg 93%
    02:00 +20°C° 0 mm 0 mps 715 mmHg 94%
    03:00 +20°C° 0 mm 0 mps 715 mmHg 96%
    04:00 +19°C° 0 mm 0 mps 715 mmHg 97%
    05:00 +21°C° 0 mm 0 mps 716 mmHg 93%
    06:00 +22°C° 0 mm 0 mps 717 mmHg 88%
    07:00 +23°C° 0 mm 0 mps 717 mmHg 84%
    08:00 +27°C° 0.4 mm 1 mps 717 mmHg 78%
    09:00 +28°C° 0.4 mm 1 mps 717 mmHg 71%
    10:00 +30°C° 0.4 mm 2 mps 717 mmHg 65%
    11:00 +30°C° 0.5 mm 2 mps 717 mmHg 65%
    12:00 +30°C° 0.5 mm 2 mps 716 mmHg 65%
    13:00 +30°C° 0.5 mm 2 mps 715 mmHg 65%
    14:00 +30°C° 0.5 mm 2 mps 714 mmHg 67%
    15:00 +30°C° 0.5 mm 2 mps 714 mmHg 69%
    16:00 +29°C° 0.5 mm 2 mps 714 mmHg 72%
    17:00 +27°C° 0.4 mm 2 mps 714 mmHg 79%
    18:00 +26°C° 0.4 mm 1 mps 714 mmHg 87%
    19:00 +22°C° 0.4 mm 0 mps 715 mmHg 94%
    20:00 +22°C° 0 mm 0 mps 715 mmHg 94%
    21:00 +21°C° 0 mm 0 mps 716 mmHg 94%
    22:00 +21°C° 0 mm 0 mps 716 mmHg 93%
    23:00 +21°C° 0 mm 0 mps 716 mmHg 93%

    23 December, Sunday

    Time Temperature Precipitation Wind Pressure Humidity
    00:00 +21°C° 0 mm 0 mps 715 mmHg 93%
    01:00 +21°C° 0 mm 0 mps 715 mmHg 93%
    02:00 +21°C° 0 mm 0 mps 715 mmHg 93%
    03:00 +21°C° 0 mm 0 mps 715 mmHg 94%
    04:00 +21°C° 0 mm 0 mps 715 mmHg 95%
    05:00 +22°C° 0 mm 0 mps 715 mmHg 92%
    06:00 +22°C° 0 mm 0 mps 716 mmHg 89%
    07:00 +23°C° 0 mm 0 mps 717 mmHg 87%
    08:00 +28°C° 0 mm 1 mps 717 mmHg 74%
    09:00 +30°C° 0 mm 1 mps 717 mmHg 62%
    10:00 +33°C° 0 mm 1 mps 717 mmHg 50%
    11:00 +33°C° 0 mm 1 mps 716 mmHg 47%
    12:00 +34°C° 0 mm 1 mps 715 mmHg 44%
    13:00 +35°C° 0 mm 1 mps 714 mmHg 41%
    14:00 +34°C° 0 mm 1 mps 714 mmHg 42%
    15:00 +34°C° 0 mm 1 mps 713 mmHg 43%
    16:00 +34°C° 0 mm 1 mps 713 mmHg 45%
    17:00 +32°C° 0 mm 1 mps 713 mmHg 52%
    18:00 +29°C° 0 mm 1 mps 713 mmHg 60%
    19:00 +27°C° 0 mm 1 mps 714 mmHg 67%
    20:00 +27°C° 0 mm 1 mps 714 mmHg 70%
    21:00 +26°C° 0 mm 1 mps 715 mmHg 72%
    22:00 +25°C° 0 mm 1 mps 715 mmHg 75%
    23:00 +25°C° 0.3 mm 1 mps 715 mmHg 80%
    Show more